Location: Ellet Heights Mobile Home Park
(41.0461°N, 81.4233°W)
Time: 03:09:54
(UTC+00:00)

Daily predictions for brighter satellites

Satellite Brightness Start Highest point End
(mag) Time Altitude Azimuth Time Altitude Azimuth Time Altitude Azimuth
Cosmos 372 Rocket 4.2 00:01:29 10° S 00:06:30 48° ESE 00:11:32 10° NNE
Cosmos 2263 Rocket 2.8 00:02:28 10° SW 00:07:57 60° WNW 00:13:29 10° NNE
Cosmos 1464 Rocket 4.3 00:03:33 10° SSE 00:09:15 43° E 00:15:01 10° NNE
Cosmos 1025 Rocket 4.1 00:06:58 10° NNE 00:10:40 26° ENE 00:14:22 10° SE
BREEZE-M DEB (TANK) 3.4 00:09:17 10° SSW 00:11:59 44° SE 00:18:48 10° NE
USA 186 3.5 00:11:48 14° E 00:12:49 16° ENE 00:14:48 10° NNE
Cosmos 1782 Rocket 3.8 00:08:47 10° S 00:13:10 78° W 00:17:38 10° N
Cosmos 1844 Rocket 3.3 00:09:29 10° SSE 00:14:19 31° ESE 00:19:11 10° NE
Cosmos 1867 3.7 00:10:14 10° NNW 00:15:38 57° NE 00:20:58 10° SE
ISS -3.1 00:15:40 10° WSW 00:18:58 55° NNW 00:22:18 10° NE
Cosmos 2084 Rocket 4.2 00:17:06 10° NW 00:21:29 56° WSW 00:25:56 10° SSE
Cosmos 2151 Rocket 4.2 00:18:02 10° SSE 00:22:01 33° E 00:26:03 10° NNE
Cosmos 1937 Rocket 4.3 00:18:57 10° SW 00:24:06 55° WNW 00:29:14 10° N
USA 234 4.1 00:19:11 10° ENE 00:24:36 27° SE 00:30:00 10° S
SJ-11-01 4.2 00:20:03 10° SSE 00:24:45 72° ENE 00:29:27 10° N
Lacrosse 5 rocket 4.1 00:23:07 10° NW 00:24:52 12° NNW 00:26:39 10° N
Cosmos 2150 Rocket 4.3 00:21:07 10° S 00:26:11 46° ESE 00:31:22 10° NNE
Cosmos 1943 3.7 00:24:18 10° NNW 00:29:52 62° WSW 00:35:27 10° S
Cosmos 1125 Rocket 4.1 00:25:55 10° SSE 00:30:35 32° E 00:35:17 10° NE
CZ-2C R/B 2.1 00:27:49 10° WSW 00:31:03 30° S 00:32:43 20° SE
Cosmos 1891 Rocket 4.4 00:30:13 10° S 00:36:21 77° E 00:42:25 10° N
CSL-04 Debris 4.3 00:31:33 10° S 00:36:55 76° WSW 00:42:19 10° NNW
Exosat Rocket 4.1 00:33:10 10° S 00:38:28 36° ESE 00:43:03 10° NE
Cosmos 1975 Rocket 3.8 00:35:02 10° NNW 00:39:16 55° W 00:43:28 10° S
NOSS 3-4 (A) 4.3 00:35:28 10° SSE 00:40:00 24° ESE 00:42:16 19° E
NOSS 3-4 (C) 4.3 00:35:37 10° SSE 00:40:07 23° ESE 00:41:56 20° E
CSL-04 Rocket 4.0 00:38:21 10° S 00:43:43 70° WSW 00:49:12 10° NNW
Cosmos 1174 4.5 00:43:45 10° SSW 00:48:31 89° ESE 00:54:37 10° NNE
Meteor 1-15 Rocket 4.3 00:48:16 10° SSE 00:53:39 51° E 00:59:09 10° NNE
Cosmos 1674 3.4 00:50:40 10° N 00:54:01 34° ENE 00:54:01 34° ENE
Cosmos 1805 4.5 00:57:53 26° NE 00:57:53 26° NE 01:00:06 10° NNE
Abrixas rocket 4.0 00:54:38 10° NW 00:56:44 18° N 00:57:14 17° NNE
Resurs 01 Rocket 3.4 00:59:15 18° NE 00:59:15 18° NE 01:01:26 10° NNE
H-2A R/B 2.5 00:53:48 10° S 00:58:39 58° W 01:03:39 10° NNW
IRS-1A Rocket 4.3 00:55:43 17° SSE 01:00:18 66° ENE 01:06:08 10° N
Cosmos 1048 Rocket 4.0 00:55:23 10° NNW 01:00:40 62° ENE 01:03:09 31° SE
ATLAS 2AS CENTAUR R/B 3.4 00:55:15 10° S 01:02:23 39° ESE 01:09:33 10° NE
Nadezhda 4 Rocket 3.8 00:56:20 10° N 01:02:28 71° E 01:07:55 13° SSE
BREEZE-M TANK 3.4 00:52:03 10° WSW 01:03:10 79° NNW 01:05:15 29° ENE
Cosmos 2034 Rocket 4.0 01:01:15 10° S 01:07:37 89° E 01:14:00 10° N
CENTAUR R/B 3.4 01:02:21 10° NNW 01:10:16 53° NE 01:14:15 32° ESE
Okean 1 Rocket 3.0 01:16:18 59° ESE 01:16:34 60° E 01:21:00 10° NNE
ATLAS 3B R/B 4.1 01:12:46 10° NNW 01:18:05 23° NE 01:20:03 21° ENE
Okean 2 Rocket 4.4 01:13:57 10° SSW 01:18:11 40° WNW 01:22:26 10° N
Ariane Rocket 2.9 01:16:43 26° S 01:19:36 84° WSW 01:24:43 10° NNW
KORONAS-FOTON 3.9 01:16:54 10° N 01:20:25 64° NE 01:20:25 64° NE
OBJECT-B 2.9 01:23:19 20° N 01:23:19 20° N 01:24:27 10° N
Cosmos 2082 Rocket 4.3 01:21:40 10° NNE 01:23:32 12° NE 01:23:32 12° NE
Cosmos 494 Rocket 3.9 01:20:54 10° NNW 01:26:09 66° ENE 01:26:49 60° ESE
USA 238 DEB 3.8 01:18:52 10° NNW 01:26:10 84° ENE 01:29:18 39° SE
USA 238 3.8 01:18:58 10° NNW 01:26:16 83° NE 01:29:22 40° SE
Meteor 2-5 Rocket 3.8 01:21:36 10° N 01:27:11 57° ENE 01:27:52 54° ESE
ARGOS 4.2 01:22:59 10° S 01:28:04 43° W 01:33:11 10° NNW
Resurs 1-3 4.0 01:32:05 51° NNE 01:32:05 51° NNE 01:35:38 10° N
Meteor 1-22 Rocket 4.3 01:32:16 55° E 01:32:20 55° E 01:38:12 10° NNE
SJ-6B 3.1 01:33:14 59° W 01:33:14 59° W 01:36:53 10° NNW
CZ-2C R/B 3.0 01:28:55 10° N 01:34:26 67° WNW 01:39:59 10° SSW
COSMOS 2406 4.2 01:33:50 10° N 01:38:13 31° NE 01:38:13 31° NE
Cosmos 1634 Rocket 3.8 01:37:16 47° SSE 01:39:01 70° E 01:45:11 10° NNE
USA 186 4.0 01:43:19 23° W 01:43:19 23° W 01:45:56 10° NW
SPOT 3 Rocket 3.4 01:44:55 73° NE 01:44:55 73° NE 01:49:48 10° N
Meteor 1-24 Rocket 3.8 01:39:29 10° N 01:44:31 59° NE 01:44:31 59° NE
Cosmos 2285 Rocket 4.3 01:43:14 10° SSW 01:49:29 67° WNW 01:55:49 10° NNE
NOSS 3-2 (A) 4.3 01:45:24 10° NW 01:53:05 67° WSW 01:56:30 39° S
ISS -0.9 01:54:05 10° NW 01:55:46 16° NNW 01:55:46 16° NNW
Cosmos 1844 Rocket 4.1 01:52:59 10° SW 01:58:05 36° WNW 02:03:15 10° N
Cosmos 1627 Rocket 4.5 01:52:33 10° N 01:58:59 86° W 01:59:57 67° S
Cosmos 1092 Rocket 4.3 01:57:11 10° NNW 02:03:16 63° W 02:05:04 44° SSW
Lacrosse 5 rocket 4.2 02:04:43 10° N 02:05:53 11° N 02:06:10 11° NNE
Cosmos 2026 Rocket 4.0 02:01:35 10° N 02:07:58 78° W 02:08:36 70° SSW
USA 234 3.2 02:04:40 32° NE 02:08:01 81° NW 02:14:33 10° SW
Milstar 3 Cent rocket 4.4 02:13:17 10° SW 02:14:14 13° SW 02:14:14 13° SW
Cosmos 2279 Rocket 4.4 02:21:53 55° N 02:21:53 55° N 02:26:42 10° N
Cosmos 1833 Rocket 3.9 02:18:28 10° NNW 02:21:52 34° N 02:21:52 34° N
NOSS 3-2 (C) 4.3 02:21:07 10° NW 02:28:46 63° WSW 02:29:49 58° SSW
NOSS 3-4 (A) 3.9 02:24:33 10° SW 02:34:00 24° NNE 02:36:30 10° NNE
NOSS 3-4 (C) 3.9 02:24:39 10° SW 02:34:28 22° NNE 02:36:36 10° NNE
Resurs 01 Rocket 3.8 02:36:49 24° NW 02:36:49 24° NW 02:38:46 10° NNW
ATLAS 2AS CENTAUR R/B 3.6 02:45:27 10° SW 02:53:12 54° NW 03:00:56 10° NNE
CENTAUR R/B 3.9 02:53:17 10° NW 03:01:05 45° WSW 03:01:27 44° WSW
Cosmos 2082 Rocket 4.1 03:03:16 10° NNW 03:05:22 24° NNW 03:05:22 24° NNW
ATLAS 3B R/B 3.6 03:02:45 10° NW 03:07:18 45° NNW 03:07:18 45° NNW
ADEOS II 4.2 07:26:13 10° NNE 07:28:11 23° NNE 07:28:11 23° NNE
Lacrosse 5 3.5 08:06:13 30° NNE 08:06:13 30° NNE 08:08:53 10° NE
Cosmos 2278 4.5 08:08:13 50° NE 08:08:13 50° NE 08:12:28 10° NNE
CZ-2D R/B 4.3 08:02:54 10° N 08:04:03 16° NNW 08:04:03 16° NNW
Resurs 1-4 Rocket 4.4 08:09:12 10° N 08:10:13 15° NNW 08:10:13 15° NNW
NOSS 3-3 (A) 4.4 08:19:03 51° ESE 08:19:03 51° ESE 08:24:58 10° NE
NOSS 3-3 (C) 4.4 08:19:13 50° ESE 08:19:13 50° ESE 08:25:02 10° NE
USA 267 3.2 08:16:00 10° NE 08:22:28 72° NW 08:22:28 72° NW
Spot 4 Rocket 4.2 08:30:18 10° NNE 08:35:06 68° ENE 08:35:06 68° ENE
SL-8 R/B 4.4 08:39:54 51° NNE 08:39:54 51° NNE 08:44:22 10° E
Cosmos 921 Rocket 3.9 08:43:18 45° ENE 08:43:18 45° ENE 08:46:31 10° NNE
MSX 4.0 08:39:38 10° NNE 08:45:25 68° ESE 08:47:06 46° SSE
Cosmos 1812 4.0 08:46:42 38° ENE 08:46:42 38° ENE 08:49:55 10° NNE
Timation 1 Rocket 4.2 08:41:07 10° NNW 08:47:09 83° WSW 08:53:08 10° SSE
Cosmos 1697 Rocket 3.8 08:48:34 30° NNW 08:48:34 30° NNW 08:52:29 10° N
Cosmos 1980 Rocket 2.4 08:52:46 54° NW 08:52:46 54° NW 08:57:58 10° NNE
USA 234 3.5 08:49:34 10° ESE 08:56:01 66° NE 09:02:30 10° NW
BREEZE-M DEB (TANK) 3.7 08:55:57 42° SW 08:58:35 64° SSE 09:02:27 10° ENE
Cosmos 2322 Rocket 3.4 08:55:32 17° SSE 08:59:25 39° ESE 09:04:41 10° NE
BREEZE-M DEB (TANK) 3.6 09:01:04 42° NNE 09:01:04 42° NNE 09:05:05 10° ENE
Cosmos 2263 Rocket 2.6 08:55:44 10° NNW 09:01:21 63° ENE 09:06:58 10° SE
Celestis-02/Orion 38 4.4 09:02:11 10° SSE 09:07:28 79° WSW 09:12:40 10° NNW
SL-16 R/B 2.7 09:05:31 26° S 09:08:37 59° ESE 09:14:11 10° NNE
SL-4 R/B 2.8 09:08:18 46° SSE 09:08:56 50° SE 09:13:31 10° ENE
Cosmos 2228 Rocket 3.1 09:09:42 62° NW 09:09:42 62° NW 09:13:38 10° N
FALCON 9 DEB 4.2 09:10:01 41° ESE 09:10:01 41° ESE 09:12:48 10° ENE
ADEOS II 3.9 09:06:56 10° NNW 09:09:07 18° NW 09:09:07 18° NW
Cosmos 1934 Rocket 3.9 09:05:22 10° NNW 09:11:16 56° W 09:12:49 44° SW
ARIANE 5 R/B 3.4 09:08:52 10° N 09:12:41 33° NW 09:12:41 33° NW
Meteor 1-4 Rocket 2.6 09:16:32 69° E 09:16:32 69° E 09:19:58 10° NNE
COSMOS 2441 4.3 09:12:26 10° N 09:17:20 70° WNW 09:18:29 51° SW
Cosmos 1869 Rocket 3.4 09:15:19 10° N 09:19:41 87° E 09:24:00 10° S
CZ-2C R/B 2.9 09:14:41 10° NNE 09:19:49 65° ESE 09:24:58 10° S
ASTEX 1 4.0 09:15:11 10° N 09:19:17 38° WNW 09:19:17 38° WNW
IDEFIX/ARIANE 42P 3.0 09:14:55 10° N 09:19:50 41° WNW 09:20:03 41° WNW
Cosmos 2227 4.1 09:14:52 10° NNW 09:20:33 86° WSW 09:26:10 10° SSE
Meteor 1-10 Rocket 4.2 09:17:10 22° S 09:20:59 87° W 09:26:53 10° N
ERBS 3.2 09:22:46 40° N 09:22:46 40° N 09:25:24 10° NE
CZ-2C R/B 3.4 09:18:53 10° N 09:21:45 41° NW 09:21:45 41° NW
Cosmos 1763 Rocket 3.6 09:21:34 24° S 09:24:52 78° ESE 09:30:12 10° NNE
IRIDIUM 106 4.3 09:19:47 10° N 09:25:02 89° E 09:30:15 10° S
SJ 16-02 1.2 09:25:00 10° NNW 09:29:24 76° WSW 09:33:47 10° S
PSLV R/B 3.4 09:28:04 10° NNE 09:32:17 89° WNW 09:34:43 25° SSW
Cosmos 44 4.3 09:33:21 26° NW 09:33:38 26° NW 09:37:33 10° N
Cosmos 1153 Rocket 4.5 09:28:04 10° N 09:34:29 90° E 09:40:47 10° S
Meteor 1-5 Rocket 4.0 09:29:19 10° NNW 09:34:36 67° W 09:39:59 10° S
CZ-4B R/B 3.2 09:32:11 10° SE 09:35:01 32° ENE 09:37:56 10° N
Meteor 2-6 Rocket 4.3 09:32:38 30° SW 09:35:15 54° WNW 09:40:57 10° N
H-2A R/B 2.0 09:31:12 10° S 09:35:30 60° WSW 09:39:55 10° NNW
DEBRIS 2.4 09:34:58 54° NW 09:35:32 81° NNE 09:40:45 10° ESE
Cosmos 1238 Rocket 4.4 09:30:32 10° NNW 09:36:29 38° W 09:39:04 26° SW
Cosmos 1605 Rocket 4.1 09:32:20 10° NNW 09:38:33 54° W 09:44:44 10° SSW
Landsat 5 3.9 09:41:47 10° S 09:46:06 45° W 09:50:25 10° NNW
PAYLOAD A 3.8 09:42:23 10° N 09:47:00 59° WNW 09:50:29 17° SSW
Lacrosse 5 3.8 09:45:25 13° NW 09:47:51 18° NNW 09:51:16 10° NNE
ERS-2 2.0 09:44:52 10° S 09:48:30 72° WSW 09:52:11 10° NNW
Cosmos 990 Rocket 3.9 09:44:58 10° NNW 09:50:11 73° WSW 09:55:21 10° S
Cosmos 540 Rocket 3.8 09:46:29 10° S 09:51:36 68° ESE 09:56:45 10° NNE
X-37B 1.0 09:51:10 30° NW 09:52:31 60° NNE 09:55:41 10° E
Cosmos 468 Rocket 4.2 09:50:04 22° SW 09:53:23 52° WNW 09:58:32 10° N
ALOS 2.8 09:55:02 10° NNE 09:59:40 61° E 10:04:15 10° S
Cosmos 1484 Rocket 3.3 09:55:50 10° NNE 09:59:48 63° E 10:03:46 10° S
NOSS 3-4 (A) 4.3 09:56:06 10° NNW 10:03:09 67° NE 10:10:56 10° SE
NOSS 3-4 (C) 4.3 09:56:12 10° NNW 10:03:15 67° NE 10:11:02 10° SE
USA 267 4.4 09:59:22 10° NE 10:04:50 30° NNW 10:09:48 12° WNW
Cosmos 1536 2.8 10:02:51 10° NNW 10:06:54 65° W 10:10:54 10° S
Meteor 1-31 Rocket 3.1 10:07:32 10° NNE 10:11:22 69° ESE 10:15:11 10° S
Cosmos 1727 Rocket 4.4 10:05:42 10° SSW 10:11:43 44° WNW 10:17:44 10° N
Cosmos 1437 Rocket 3.4 10:09:39 10° S 10:13:21 56° E 10:17:07 10° NNE
Meteor 1-11 Rocket 3.9 10:08:47 10° NNW 10:14:17 47° W 10:19:39 10° SSW
Cosmos 2100 Rocket 4.0 10:08:55 10° NNW 10:15:17 71° W 10:21:35 10° S
deb Chang Zheng 4 3.6 10:15:55 10° N 10:20:10 59° WNW 10:24:20 10° SSW
Cosmos 1802 Rocket 4.0 10:14:23 10° N 10:20:37 85° W 10:26:54 10° S
SL-8 R/B 4.0 10:17:54 11° WNW 10:22:15 46° SW 10:26:48 10° SE
Meteor 1-27 Rocket 4.2 10:17:50 10° SW 10:23:27 43° WNW 10:29:05 10° N
METEOR-M 4.2 10:19:37 10° NNE 10:25:01 89° ESE 10:30:22 10° SSW
Cosmos 1898 Rocket 4.0 10:21:07 10° NW 10:25:56 37° WSW 10:30:45 10° SSW
Cosmos 2360 Rocket 2.2 10:20:34 10° SSW 10:26:14 75° WNW 10:31:55 10° NNE
ATLAS 2AS CENTAUR R/B 3.0 10:19:40 10° NNW 10:27:10 77° NE 10:33:58 10° SE
ADEOS Rocket 3.4 10:21:25 10° S 10:28:04 48° W 10:34:06 10° NNW
Cosmos 1666 3.8 10:26:04 10° NW 10:29:04 22° W 10:32:03 10° SW
Cosmos 1459 Rocket 4.0 10:24:23 10° NNW 10:30:19 57° W 10:36:12 10° S
Cosmos 372 Rocket 4.1 10:27:24 10° NNW 10:32:35 84° ENE 10:37:40 10° SSE
Cosmos 2123 Rocket 4.0 10:28:48 10° S 10:35:02 83° W 10:41:22 10° N
SAR-Lupe-4 4.0 10:33:02 10° S 10:36:26 40° W 10:39:51 10° NNW
FENGYUN 3A 3.7 10:31:09 10° N 10:36:28 61° WNW 10:41:46 10° SSW
Cosmos 2242 Rocket 3.7 10:32:24 10° S 10:36:48 83° E 10:41:13 10° N
USA 234 3.8 10:33:22 10° SSE 10:39:15 36° SW 10:45:10 10° WNW
Cosmos 2208 Rocket 4.1 10:34:22 10° SW 10:39:30 55° WNW 10:44:37 10° N
Okean 1-7 3.7 10:36:25 10° S 10:40:36 60° E 10:44:48 10° NNE
Cosmos 2322 Rocket 3.1 10:38:33 10° WSW 10:43:31 31° WNW 10:48:33 10° N
Cosmos 2263 Rocket 3.5 10:41:01 10° WNW 10:44:42 18° W 10:48:24 10° SW
Cosmos 1844 3.9 10:42:09 10° NNW 10:47:44 78° ENE 10:53:17 10° SSE
SL-4 R/B 3.1 10:44:25 10° W 10:48:47 40° NNW 10:53:20 10° NE
Cosmos 1733 Rocket 3.8 10:46:22 10° NNW 10:50:07 29° W 10:53:51 10° SSW
SKYMED 2 3.5 10:46:08 10° S 10:50:27 77° WSW 10:54:49 10° NNW
Cosmos 1844 Rocket 2.7 10:45:32 10° NNW 10:51:12 80° WSW 10:56:51 10° SSE
Cosmos 1937 Rocket 4.2 10:46:50 10° NW 10:51:17 30° W 10:55:42 10° SSW
CZ-4C R/B 4.1 10:45:28 10° NNW 10:52:24 46° NE 11:00:18 10° ESE
